User: anonymous   Login
Location: Eaton Estates
(41.3089°N, 82.0057°W)
Time: 16:02:24
(UTC+00:00)
Language:

In-Cosmos 22 - Orbit

View from above orbital plane
View from above orbital plane
View from above satellite
View from above satellite

Ground track
Ground track

The orbit data is extracted from the following two-line orbital elements,

1 12645U 81075A   21265.07751943  .00000100  00000-0  41025-4 0  9998
2 12645  81.2153 119.5036 0064374 128.1280 232.5722 14.18401492 75190
Epoch (UTC): 22 September 2021 01:51:37
Eccentricity: 0.0064374
inclination: 81.2153°
perigee height: 784 km
apogee height: 877 km
right ascension of ascending node: 119.5036°
argument of perigee: 128.1280°
revolutions per day: 14.18401492
mean anomaly at epoch: 232.5722°
orbit number at epoch: 7519

The dashed part of the orbit path shows where the satellite is in the earth's shadow,  

DLR